This is the latest recevied weather packets stored in our database for station/object KD9CCP. If no packets are shown the sender has not sent any weather packets the latest 10 day(s).
| Time | Temp. | Humidity | Pressure | Rain* | Wind** | Luminosity | Snow |
|---|---|---|---|---|---|---|---|
| 1777490576 | 7.78° C | 67% | 1016.3 hPa | 0 mm | - | 85 W/m² | - |
| 1777490272 | 7.22° C | 68% | 1016.2 hPa | 0 mm | - | 88 W/m² | - |
| 1777489971 | 7.22° C | 68% | 1016.4 hPa | 0 mm | - | 75 W/m² | - |
| 1777489668 | 7.22° C | 68% | 1016.4 hPa | 0 mm | - | 75 W/m² | - |
| 1777489364 | 7.22° C | 68% | 1016.4 hPa | 0 mm | - | 77 W/m² | - |
| 1777489062 | 6.67° C | 69% | 1016.3 hPa | 0 mm | - | 93 W/m² | - |
| 1777488758 | 6.67° C | 68% | 1016.3 hPa | 0 mm | - | 111 W/m² | - |
| 1777488456 | 6.67° C | 68% | 1016.3 hPa | 0 mm | - | 89 W/m² | - |
| 1777488154 | 6.67° C | 70% | 1016.3 hPa | 0 mm | - | 92 W/m² | - |
| 1777487852 | 6.67° C | 70% | 1016.2 hPa | 0 mm | - | 82 W/m² | - |
| 1777487550 | 6.67° C | 70% | 1016.2 hPa | 0 mm | - | 71 W/m² | - |
| 1777487246 | 6.67° C | 68% | 1016.2 hPa | 0 mm | - | 69 W/m² | - |
| 1777486943 | 6.67° C | 72% | 1016.5 hPa | 0 mm | - | 89 W/m² | - |
| 1777486639 | 6.67° C | 73% | 1016.3 hPa | 0 mm | - | 85 W/m² | - |
| 1777486337 | 6.67° C | 73% | 1016.6 hPa | 0 mm | - | 89 W/m² | - |
| 1777486034 | 6.11° C | 73% | 1016.7 hPa | 0 mm | - | 74 W/m² | - |
| 1777485731 | 6.11° C | 76% | 1016.5 hPa | 0 mm | - | 57 W/m² | - |
| 1777485426 | 6.11° C | 75% | 1016.6 hPa | 0 mm | - | 47 W/m² | - |
| 1777485122 | 6.11° C | 74% | 1016.7 hPa | 0 mm | - | 43 W/m² | - |
| 1777484820 | 6.11° C | 77% | 1016.9 hPa | 0 mm | - | 37 W/m² | - |
| 1777484516 | 6.11° C | 74% | 1016.8 hPa | 0 mm | - | 37 W/m² | - |
| 1777484213 | 6.11° C | 75% | 1016.9 hPa | 0 mm | - | 40 W/m² | - |
| 1777483909 | 6.11° C | 76% | 1017 hPa | 0 mm | - | 43 W/m² | - |
| 1777483605 | 6.11° C | 76% | 1016.7 hPa | 0 mm | - | 42 W/m² | - |
| 1777483300 | 6.11° C | 76% | 1016.8 hPa | 0 mm | - | 47 W/m² | - |
* Rain latest hour (hover to see other rain measurements)
** Current wind speed in m/s (hover to see current wind gust speed)